[[{"header":{"parameterUnit":"m.s-1","parameterCategory":1,"la1":30.2991,"la2":30.254,"lo1":-89.0895,"lo2":-89.0444,"dy":0.0017,"dx":0.0017,"nx":28,"ny":28,"refTime":"2024-11-24T09:00:00:Z","depth":0,"parameterNumber":2,"parameterNumberName":"U-component_of_WINDS"},"data":[0,0,0,0,0,0,0,0,0,0,0,0,0,0,0,0,0,0,0,0,0,0,0,0,0,0,0,0,0,0,0,0,0,0,0,0,0,0,0,0,0,0,0,0,0,0,0,0,0,0,0,0,0,0,0,0,0,0,-0.7204,-0.7204,0,-0.7255,-0.7256,-0.7256,-0.7304,-0.7305,-0.7305,-0.7306,-0.7358,-0.7359,-0.7359,0,0,0,0,0,0,0,0,0,0,0,0,0,-0.7147,-0.7147,-0.7204,-0.7204,-0.7205,-0.7255,-0.7256,-0.7256,-0.7304,-0.7305,-0.7306,-0.7306,-0.7358,-0.7359,-0.736,0,0,0,0,0,0,0,0,0,0,0,0,0,-0.7182,-0.7148,-0.7204,-0.7235,-0.7238,-0.7255,-0.7256,-0.7256,-0.7304,-0.7305,-0.7306,-0.7307,-0.7357,-0.7358,-0.736,-0.7349,0,0,-0.7363,-0.7364,0,0,0,0,0,0,0,0,-0.718,-0.7184,-0.723,-0.7233,-0.7237,-0.7274,-0.7255,-0.7287,-0.7304,-0.7279,-0.7306,-0.7307,-0.7329,-0.7333,-0.734,-0.7352,-0.7354,-0.7364,-0.7364,-0.7365,-0.7365,0,0,0,0,0,0,0,-0.7177,-0.7182,-0.7224,-0.723,-0.7234,-0.7246,-0.7252,-0.7261,-0.7298,-0.7281,-0.7285,-0.729,-0.7331,-0.7339,-0.7342,-0.7355,-0.7364,-0.7365,-0.7365,-0.7366,-0.7359,-0.7358,0,0,0,0,0,0,-0.717,-0.718,-0.7222,-0.7225,-0.721,-0.7246,-0.7253,-0.7261,-0.7298,-0.7305,-0.7289,-0.7292,-0.7337,-0.7341,-0.7344,-0.7333,-0.7365,-0.7366,-0.7367,-0.736,-0.7358,-0.7357,0,0,0,0,0,0,-0.7169,-0.7174,-0.722,-0.7204,-0.721,-0.7246,-0.7255,-0.7262,-0.727,-0.7305,-0.7312,-0.7291,-0.7337,-0.7342,-0.7347,-0.7336,-0.7367,-0.7368,-0.7361,-0.7359,-0.7358,-0.7312,0,0,0,0,0,0,-0.7167,-0.7173,-0.7169,-0.7203,-0.7211,-0.7223,-0.7254,-0.7262,-0.7272,-0.7276,-0.7308,-0.7314,-0.7339,-0.7345,-0.7349,-0.7338,-0.7369,-0.7362,-0.736,-0.7358,-0.7314,-0.7309,-0.7304,0,0,0,0,0,-0.7165,-0.7154,-0.7169,-0.7174,-0.7208,-0.7222,-0.7226,-0.7255,-0.7271,-0.7267,-0.729,-0.7313,-0.7337,-0.7345,-0.7349,-0.7339,-0.7363,-0.7361,-0.7359,-0.7317,-0.731,-0.7304,0,0,0,0,0,0,-0.7118,-0.7159,-0.7176,-0.7176,-0.7195,-0.723,-0.7226,-0.7248,-0.7263,-0.7266,-0.7301,-0.7308,-0.7309,-0.7325,-0.7334,-0.733,-0.7353,-0.7351,-0.7319,-0.7313,-0.7308,-0.7304,-0.737,0,0,0,0,0,-0.7108,-0.7116,-0.7152,-0.7148,-0.7157,-0.719,-0.7197,-0.7218,-0.7239,-0.7248,-0.7271,-0.729,-0.7302,-0.7309,-0.7322,-0.7317,-0.7324,-0.7312,-0.7307,-0.7303,-0.7301,-0.7298,-0.7293,-0.7351,-0.7351,-0.7351,0,0,-0.7086,-0.711,-0.7113,-0.714,-0.7157,-0.7164,-0.7197,-0.7203,-0.7209,-0.7249,-0.7254,-0.7272,-0.7296,-0.7296,-0.7297,-0.7309,-0.7286,-0.73,-0.7296,-0.7297,-0.7296,-0.729,-0.7285,-0.7349,-0.7349,-0.735,0,0,-0.7051,-0.707,-0.7069,-0.7086,-0.7111,-0.7133,-0.7133,-0.7165,-0.7178,-0.7184,-0.7214,-0.7221,-0.7241,-0.7257,-0.7267,-0.7238,-0.7259,-0.7241,-0.7214,-0.7211,-0.7207,-0.7203,-0.7191,-0.7186,-0.7239,-0.7239,-0.7239,0,-0.7021,-0.7034,-0.7066,-0.707,-0.7081,-0.7117,-0.7116,-0.7131,-0.7159,-0.7165,-0.7179,-0.7204,-0.7223,-0.7226,-0.7219,-0.7227,-0.7227,-0.7237,-0.7205,-0.7201,-0.7198,-0.7187,-0.7182,-0.7237,-0.7237,-0.7237,-0.7238,0,-0.6995,-0.7003,-0.6999,-0.7025,-0.7036,-0.7037,-0.7069,-0.7076,-0.7096,-0.7116,-0.7122,-0.7146,-0.7164,-0.7167,-0.7186,-0.7173,-0.7179,-0.7198,-0.7221,-0.7189,-0.718,-0.7176,-0.7233,-0.7234,-0.7235,-0.7235,0,0,-0.693,-0.6974,-0.6972,-0.6984,-0.7015,-0.7022,-0.7025,-0.7043,-0.7047,-0.7066,-0.7069,-0.7085,-0.7103,-0.7115,-0.7137,-0.7134,-0.7108,-0.7154,-0.7155,-0.7143,-0.7093,-0.7077,-0.7071,-0.7123,-0.7122,-0.7122,-0.709,0,-0.6899,-0.6907,-0.6935,-0.6934,-0.6942,-0.6977,-0.6979,-0.6998,-0.7018,-0.7027,-0.7048,-0.7058,-0.7082,-0.7089,-0.7089,-0.7111,-0.7098,-0.7114,-0.7125,-0.7125,-0.7116,-0.7067,-0.705,-0.7019,-0.7087,-0.7086,-0.7086,0,-0.6863,-0.6879,-0.6878,-0.6908,-0.6913,-0.6914,-0.6933,-0.6941,-0.6963,-0.6978,-0.6991,-0.7015,-0.702,-0.7043,-0.7049,-0.706,-0.7066,-0.7078,-0.7077,-0.7078,-0.7102,-0.7064,-0.701,-0.7004,-0.708,-0.7081,-0.7081,0,-0.6814,-0.6835,-0.6838,-0.6847,-0.6883,-0.6883,-0.6898,-0.6921,-0.693,-0.6946,-0.6952,-0.6968,-0.6976,-0.6989,-0.7017,-0.7031,-0.7019,-0.7045,-0.703,-0.7029,-0.7025,-0.7024,-0.6969,-0.7032,-0.7032,-0.7032,-0.7032,0,-0.6775,-0.6773,-0.6816,-0.6817,-0.6815,-0.6849,-0.6846,-0.6865,-0.6885,-0.689,-0.6922,-0.6926,-0.6964,-0.6972,-0.6994,-0.6995,-0.6999,-0.701,-0.7016,-0.7006,-0.7004,-0.701,-0.7012,-0.7031,-0.7031,-0.7031,-0.7032,0,-0.6719,-0.6748,-0.6752,-0.6786,-0.6794,-0.6791,-0.682,-0.6822,-0.6844,-0.6849,-0.6853,-0.6886,-0.6897,-0.6927,-0.6946,-0.6961,-0.6956,-0.6967,-0.6948,-0.6951,-0.6934,-0.6935,-0.6878,-0.6872,-0.694,-0.694,-0.6939,0,-0.6691,-0.669,-0.6724,-0.6729,-0.6743,-0.6751,-0.676,-0.6793,-0.6801,-0.6826,-0.6825,-0.6839,-0.6851,-0.6868,-0.6893,-0.6908,-0.6919,-0.6899,-0.6921,-0.6912,-0.6917,-0.6916,-0.6915,-0.6893,-0.6892,-0.6891,-0.6891,0,-0.6638,-0.6652,-0.6664,-0.668,-0.669,-0.6704,-0.6721,-0.6723,-0.6761,-0.6768,-0.6779,-0.6789,-0.6808,-0.6821,-0.684,-0.6855,-0.6878,-0.6883,-0.6881,-0.687,-0.6858,-0.6862,-0.6932,-0.6884,-0.6885,-0.6885,-0.6886,-0.6886,-0.6594,-0.6595,-0.6618,-0.663,-0.6645,-0.666,-0.6663,-0.6685,-0.6695,-0.6713,-0.6733,-0.6742,-0.6764,-0.6791,-0.6805,-0.6812,-0.6825,-0.6821,-0.682,-0.6818,-0.6813,-0.6858,-0.6816,-0.6816,-0.6817,-0.6817,-0.6817,0,-0.6542,-0.6558,-0.6569,-0.659,-0.6599,-0.6621,-0.664,-0.6646,-0.6654,-0.6673,-0.6684,-0.6697,-0.671,-0.6737,-0.6752,-0.6753,-0.6764,-0.6755,-0.6755,-0.6757,-0.6802,-0.6802,-0.6746,-0.6746,-0.6746,-0.6746,-0.6746,-0.6746,-0.6515,-0.6516,-0.6533,-0.6543,-0.656,-0.6569,-0.6578,-0.6591,-0.6606,-0.6619,-0.6629,-0.6647,-0.6669,-0.6686,-0.6698,-0.6706,-0.6709,-0.6697,-0.6707,-0.6748,-0.6754,-0.6761,-0.6761,-0.6698,-0.6697,-0.6662,-0.6662,-0.6662]},{"header":{"parameterUnit":"m.s-1","parameterCategory":1,"la1":30.2991,"la2":30.254,"lo1":-89.0895,"lo2":-89.0444,"dy":0.0017,"dx":0.0017,"nx":28,"ny":28,"refTime":"2024-11-24T09:00:00:Z","depth":0,"parameterNumber":3,"parameterNumberName":"V-component_of_WINDS"},"data":[0,0,0,0,0,0,0,0,0,0,0,0,0,0,0,0,0,0,0,0,0,0,0,0,0,0,0,0,0,0,0,0,0,0,0,0,0,0,0,0,0,0,0,0,0,0,0,0,0,0,0,0,0,0,0,0,0,0,-1.3612,-1.3613,0,-1.3675,-1.3676,-1.3677,-1.3725,-1.3725,-1.3726,-1.3726,-1.3789,-1.379,-1.3791,0,0,0,0,0,0,0,0,0,0,0,0,0,-1.3532,-1.3533,-1.3612,-1.3613,-1.3614,-1.3675,-1.3676,-1.3677,-1.3725,-1.3725,-1.3726,-1.3726,-1.3789,-1.379,-1.3792,0,0,0,0,0,0,0,0,0,0,0,0,0,-1.3578,-1.3533,-1.3612,-1.3645,-1.3649,-1.3675,-1.3676,-1.3677,-1.3725,-1.3725,-1.3726,-1.3727,-1.3788,-1.379,-1.3792,-1.379,0,0,-1.3798,-1.3798,0,0,0,0,0,0,0,0,-1.3575,-1.3581,-1.3639,-1.3643,-1.3647,-1.3693,-1.3671,-1.3715,-1.3724,-1.3696,-1.3726,-1.3727,-1.3756,-1.3761,-1.3771,-1.3793,-1.3796,-1.3798,-1.3799,-1.38,-1.38,0,0,0,0,0,0,0,-1.3572,-1.3578,-1.3637,-1.364,-1.3645,-1.3656,-1.3664,-1.3679,-1.3721,-1.3698,-1.3702,-1.3709,-1.3759,-1.3769,-1.3773,-1.3797,-1.3798,-1.3799,-1.3801,-1.3801,-1.382,-1.382,0,0,0,0,0,0,-1.3564,-1.3575,-1.3635,-1.3639,-1.3612,-1.3657,-1.3665,-1.3677,-1.3721,-1.3729,-1.3708,-1.3711,-1.3766,-1.3771,-1.3775,-1.3776,-1.38,-1.3801,-1.3803,-1.3821,-1.382,-1.3819,0,0,0,0,0,0,-1.3562,-1.3569,-1.3632,-1.3608,-1.3617,-1.3658,-1.3671,-1.3678,-1.3689,-1.3729,-1.3736,-1.3711,-1.3766,-1.3773,-1.3786,-1.3779,-1.3802,-1.3804,-1.3821,-1.3821,-1.382,-1.3777,0,0,0,0,0,0,-1.3559,-1.3568,-1.3567,-1.3608,-1.3618,-1.3642,-1.3671,-1.3679,-1.3692,-1.3696,-1.3734,-1.3741,-1.3767,-1.3783,-1.3788,-1.3782,-1.3805,-1.3822,-1.3821,-1.382,-1.3779,-1.3775,-1.3771,0,0,0,0,0,-1.3556,-1.3553,-1.3567,-1.3574,-1.3619,-1.3642,-1.3648,-1.3679,-1.3692,-1.3692,-1.3717,-1.374,-1.3779,-1.3784,-1.379,-1.3784,-1.3823,-1.3821,-1.382,-1.3781,-1.3776,-1.3771,0,0,0,0,0,0,-1.3509,-1.3558,-1.3575,-1.3585,-1.3609,-1.365,-1.3651,-1.3672,-1.3693,-1.3695,-1.3733,-1.3741,-1.375,-1.3769,-1.3773,-1.3785,-1.3804,-1.3804,-1.3772,-1.3767,-1.3763,-1.3758,-1.3807,0,0,0,0,0,-1.35,-1.3515,-1.3557,-1.3561,-1.3573,-1.3609,-1.362,-1.3643,-1.3669,-1.3679,-1.3706,-1.373,-1.3748,-1.3759,-1.3778,-1.3783,-1.3791,-1.3782,-1.3778,-1.3774,-1.3773,-1.3777,-1.3773,-1.3815,-1.3815,-1.3815,0,0,-1.3481,-1.351,-1.3517,-1.3552,-1.3574,-1.3588,-1.3618,-1.3631,-1.3642,-1.3681,-1.3695,-1.3716,-1.3745,-1.3754,-1.376,-1.377,-1.3764,-1.3772,-1.3769,-1.377,-1.3775,-1.3771,-1.3767,-1.3814,-1.3814,-1.3814,0,0,-1.3454,-1.3477,-1.3483,-1.3504,-1.3536,-1.3561,-1.3563,-1.3601,-1.3616,-1.3631,-1.3661,-1.3674,-1.3705,-1.3724,-1.3738,-1.3719,-1.374,-1.3725,-1.3702,-1.3706,-1.3702,-1.3699,-1.3692,-1.3689,-1.3724,-1.3724,-1.3723,0,-1.3426,-1.3448,-1.3483,-1.3495,-1.351,-1.3547,-1.3553,-1.3572,-1.3608,-1.3617,-1.3629,-1.3668,-1.369,-1.3705,-1.37,-1.3711,-1.3713,-1.372,-1.37,-1.3698,-1.3696,-1.3689,-1.3686,-1.3721,-1.3722,-1.3722,-1.3722,0,-1.3412,-1.3427,-1.3428,-1.3463,-1.3478,-1.3487,-1.3523,-1.3534,-1.3555,-1.3579,-1.3594,-1.3622,-1.3648,-1.3653,-1.3673,-1.367,-1.3676,-1.3693,-1.3713,-1.3689,-1.3683,-1.3681,-1.3718,-1.3719,-1.372,-1.372,0,0,-1.3355,-1.341,-1.341,-1.3426,-1.3465,-1.3477,-1.3488,-1.3514,-1.3522,-1.3546,-1.3556,-1.3581,-1.3598,-1.3614,-1.3637,-1.364,-1.3623,-1.3657,-1.3659,-1.3649,-1.362,-1.3606,-1.3602,-1.3638,-1.3637,-1.3637,-1.3618,0,-1.3333,-1.3354,-1.3386,-1.3397,-1.3412,-1.3448,-1.3457,-1.3482,-1.3505,-1.352,-1.3545,-1.3562,-1.3583,-1.3593,-1.3598,-1.3624,-1.3617,-1.3626,-1.3646,-1.3646,-1.3636,-1.36,-1.3584,-1.3564,-1.3616,-1.3615,-1.3615,0,-1.3309,-1.3332,-1.3344,-1.3382,-1.339,-1.3397,-1.3423,-1.3438,-1.3467,-1.3483,-1.3501,-1.3527,-1.354,-1.3559,-1.3577,-1.3582,-1.3593,-1.3607,-1.3607,-1.3609,-1.3628,-1.36,-1.3559,-1.3555,-1.3612,-1.3612,-1.3612,0,-1.3265,-1.3299,-1.3311,-1.3324,-1.3369,-1.3374,-1.3392,-1.3422,-1.3436,-1.3458,-1.3467,-1.3491,-1.3504,-1.3522,-1.3553,-1.3564,-1.3568,-1.3589,-1.3581,-1.358,-1.3579,-1.3578,-1.3538,-1.3587,-1.3587,-1.3587,-1.3587,0,-1.3236,-1.3242,-1.3292,-1.3299,-1.3306,-1.3344,-1.335,-1.3372,-1.3399,-1.3411,-1.3444,-1.3454,-1.3496,-1.3511,-1.3535,-1.3546,-1.3552,-1.3565,-1.3571,-1.3561,-1.356,-1.3568,-1.3569,-1.3587,-1.3587,-1.3587,-1.3587,0,-1.3187,-1.3221,-1.3236,-1.3278,-1.3289,-1.3293,-1.3328,-1.3337,-1.3362,-1.3376,-1.3382,-1.3421,-1.3441,-1.3474,-1.3503,-1.352,-1.3526,-1.3537,-1.3516,-1.352,-1.3509,-1.3509,-1.3472,-1.3469,-1.3521,-1.352,-1.352,0,-1.3166,-1.3171,-1.3214,-1.3225,-1.3242,-1.3259,-1.3273,-1.331,-1.3324,-1.3358,-1.3361,-1.3384,-1.3404,-1.3433,-1.3464,-1.3487,-1.3498,-1.3484,-1.3502,-1.3492,-1.3497,-1.3496,-1.3496,-1.3479,-1.3478,-1.3478,-1.3477,0,-1.3123,-1.314,-1.3159,-1.3185,-1.3201,-1.3222,-1.3245,-1.3252,-1.3295,-1.3308,-1.3329,-1.3344,-1.3374,-1.3396,-1.3423,-1.3443,-1.3466,-1.3472,-1.3471,-1.346,-1.3447,-1.3453,-1.3503,-1.3472,-1.3472,-1.3473,-1.3473,-1.3473,-1.3087,-1.3093,-1.3125,-1.3145,-1.3167,-1.3188,-1.3198,-1.3225,-1.3243,-1.3271,-1.3292,-1.3311,-1.3341,-1.338,-1.3398,-1.3413,-1.3424,-1.3423,-1.3423,-1.3421,-1.3417,-1.3446,-1.3418,-1.3419,-1.3419,-1.3419,-1.3419,0,-1.3045,-1.3068,-1.3086,-1.3118,-1.3134,-1.3157,-1.3184,-1.3196,-1.3212,-1.3238,-1.3257,-1.3281,-1.3303,-1.3336,-1.336,-1.3366,-1.3378,-1.3371,-1.337,-1.3374,-1.3406,-1.3404,-1.3361,-1.3361,-1.3361,-1.3361,-1.3361,-1.3361,-1.3026,-1.3038,-1.3058,-1.3082,-1.3104,-1.3124,-1.3137,-1.3157,-1.3178,-1.3203,-1.3222,-1.3243,-1.3272,-1.3299,-1.3319,-1.3329,-1.3335,-1.3325,-1.3337,-1.3367,-1.3372,-1.3377,-1.3375,-1.3326,-1.3326,-1.3304,-1.3304,-1.3303]}]]